[[{"header":{"parameterUnit":"m.s-1","parameterCategory":2,"la1":30.2992,"la2":30.254,"lo1":-89.0895,"lo2":-89.0443,"dy":0.0025,"dx":0.0025,"nx":19,"ny":19,"refTime":"2026-05-04T03:00:00:Z","depth":"0","parameterNumber":2,"parameterNumberName":"U-component_of_CURRENTS"},"data":[0,0,0,0.3358,0.3365,0.3597,0.3598,0.3703,0.3703,0,0,0,0,0,0,0,0,0,0,0,0.3264,0.3267,0.3358,0.3365,0.3597,0.3598,0.3702,0.3703,0,0,0,0,0,0,0,0,0,0,0,0.3263,0.3266,0.3269,0.3366,0.3597,0.3598,0.3702,0.3566,0,0,0,0,0,0,0,0,0,0,0.3361,0.33,0.3265,0.3269,0.3368,0.3597,0.3598,0.3561,0.3575,0.3553,0,0.3617,0,0.3682,0.3709,0.3709,0,0,0,0.333,0.329,0.3377,0.3269,0.337,0.3597,0.3483,0.357,0.3585,0.357,0.3619,0.3625,0.3684,0.371,0.371,0.3807,0.3807,0,0,0.3317,0.3274,0.3368,0.3387,0.3465,0.3476,0.349,0.3581,0.3591,0.362,0.3629,0.3686,0.371,0.3711,0.3807,0.3807,0,0,0,0.3304,0.3264,0.3352,0.3381,0.345,0.3483,0.35,0.3586,0.3625,0.3631,0.3687,0.3711,0.3712,0.3806,0.3807,0.3825,0,0,0,0.3294,0.3261,0.3347,0.3318,0.3451,0.3546,0.3503,0.3617,0.3631,0.3686,0.3711,0.3713,0.3806,0.3807,0.3823,0.3811,0,0,0,0.3248,0.3255,0.3298,0.3316,0.3438,0.3548,0.3589,0.3622,0.3666,0.3709,0.3713,0.3805,0.3806,0.3822,0.381,0.397,0,0,0,0.3169,0.3266,0.3297,0.3415,0.3437,0.3568,0.3589,0.3673,0.3713,0.3711,0.3806,0.3807,0.3821,0.3809,0.3967,0.3993,0.4011,0,0,0.3249,0.3274,0.3345,0.3381,0.3481,0.3531,0.3632,0.3694,0.3715,0.3755,0.3759,0.3824,0.3809,0.397,0.4049,0.4065,0,0,0,0.3342,0.3358,0.3406,0.3473,0.3577,0.3621,0.3705,0.374,0.3801,0.3756,0.3839,0.3829,0.3931,0.3939,0.3952,0.3855,0.3811,0.3811,0.3811,0.3287,0.3357,0.3417,0.3497,0.3566,0.3678,0.3742,0.3795,0.3825,0.3859,0.3855,0.3997,0.4003,0.4014,0.3912,0.388,0.388,0.388,0.388,0.3293,0.3327,0.3362,0.3441,0.351,0.358,0.3734,0.3797,0.3952,0.3897,0.3998,0.3968,0.4029,0.3916,0.3881,0.3881,0.3881,0.3881,0.3881,0.3208,0.3243,0.3275,0.3341,0.3395,0.3528,0.3694,0.3819,0.3943,0.4029,0.4148,0.4147,0.4047,0.413,0.4131,0.4131,0.4132,0.4132,0.4133,0.3134,0.3168,0.3216,0.326,0.3325,0.3456,0.3702,0.3884,0.4107,0.4171,0.4174,0.4076,0.4075,0.4064,0.4143,0.4141,0.414,0.4139,0.4138,0.3146,0.3134,0.3212,0.3273,0.3406,0.3503,0.3744,0.407,0.4276,0.4383,0.4242,0.4294,0.4314,0.4302,0.4298,0.4433,0.4433,0.4433,0.4433,0.3148,0.3147,0.3287,0.3396,0.3493,0.357,0.3796,0.4042,0.426,0.4277,0.4307,0.4199,0.4192,0.4198,0.4188,0.4178,0.4281,0.428,0.428,0.3205,0.3248,0.337,0.3448,0.3548,0.3628,0.37,0.3765,0.4025,0.4261,0.4171,0.4177,0.4,0.3996,0.3984,0.3979,0.3956,0,0]},{"header":{"parameterUnit":"m.s-1","parameterCategory":2,"la1":30.2992,"la2":30.254,"lo1":-89.0895,"lo2":-89.0443,"dy":0.0025,"dx":0.0025,"nx":19,"ny":19,"refTime":"2026-05-04T03:00:00:Z","depth":"0","parameterNumber":3,"parameterNumberName":"V-component_of_CURRENTS"},"data":[0,0,0,0.0268,0.0268,0.0273,0.0273,0.0226,0.0226,0,0,0,0,0,0,0,0,0,0,0,0.0264,0.0264,0.0268,0.0268,0.0273,0.0273,0.0226,0.0226,0,0,0,0,0,0,0,0,0,0,0,0.0264,0.0264,0.0264,0.0268,0.0273,0.0273,0.0227,0.0235,0,0,0,0,0,0,0,0,0,0,0.0237,0.0253,0.0264,0.0264,0.0268,0.0273,0.0273,0.0236,0.0235,0.021,0,0.0212,0,0.0218,0.0222,0.0221,0,0,0,0.0266,0.0254,0.0245,0.0264,0.0268,0.0273,0.027,0.0236,0.0234,0.0207,0.0211,0.021,0.0217,0.0221,0.0221,0.0207,0.0207,0,0,0.0266,0.0273,0.0246,0.0244,0.027,0.027,0.0271,0.0235,0.0238,0.0211,0.0209,0.0217,0.0221,0.022,0.0207,0.0207,0,0,0,0.0266,0.0273,0.0266,0.0245,0.0251,0.027,0.0271,0.024,0.0235,0.0209,0.0216,0.0221,0.022,0.0206,0.0207,0.0397,0,0,0,0.0266,0.0273,0.0266,0.0271,0.0252,0.0256,0.0276,0.0237,0.0234,0.0216,0.0221,0.0219,0.0206,0.0207,0.0391,0.0573,0,0,0,0.0264,0.0273,0.0272,0.0271,0.0274,0.0257,0.0251,0.0237,0.0238,0.0221,0.0219,0.0206,0.0207,0.0386,0.0559,0.0718,0,0,0,0.0273,0.0325,0.0272,0.0341,0.0274,0.0326,0.0251,0.0277,0.0273,0.022,0.0206,0.0207,0.0384,0.0551,0.0709,0.0803,0.0852,0,0,0.0355,0.0335,0.038,0.0335,0.0412,0.0325,0.0414,0.0365,0.0268,0.0212,0.0212,0.0393,0.0559,0.0716,0.0844,0.0894,0,0,0,0.042,0.0452,0.0468,0.0495,0.0491,0.0528,0.0455,0.0428,0.0388,0.0268,0.0354,0.0454,0.0548,0.0582,0.062,0.0368,0.021,0.021,0.021,0.0527,0.0538,0.0626,0.0642,0.0667,0.0655,0.0695,0.063,0.0491,0.0491,0.0576,0.0794,0.0826,0.0857,0.0593,0.0484,0.0485,0.0485,0.0486,0.0672,0.074,0.075,0.0848,0.0858,0.0916,0.0917,0.0859,0.0917,0.0728,0.0806,0.074,0.0912,0.0614,0.0497,0.0495,0.0494,0.0493,0.0492,0.0745,0.0791,0.0845,0.0975,0.1099,0.1121,0.1339,0.1277,0.115,0.1232,0.1235,0.1231,0.1005,0.124,0.1241,0.1243,0.1244,0.1245,0.1246,0.0811,0.0869,0.102,0.1142,0.1266,0.1464,0.1614,0.1704,0.1677,0.1529,0.1527,0.1051,0.1026,0.1038,0.1269,0.1265,0.1262,0.126,0.1258,0.0965,0.0992,0.1199,0.1343,0.1647,0.1938,0.2057,0.2233,0.2242,0.2234,0.1536,0.1664,0.164,0.1605,0.1629,0.2001,0.2001,0.2001,0.2001,0.1077,0.1101,0.1408,0.1656,0.1958,0.2181,0.2599,0.2654,0.2236,0.1911,0.1695,0.1454,0.1435,0.1381,0.135,0.136,0.1655,0.1654,0.1653,0.1227,0.1292,0.1529,0.1749,0.2099,0.246,0.2829,0.2876,0.2112,0.1604,0.1335,0.135,0.0944,0.0935,0.0793,0.0771,0.0765,0,0]}],[{"header":{"parameterUnit":"m.s-1","parameterCategory":2,"la1":30.2992,"la2":30.254,"lo1":-89.0895,"lo2":-89.0443,"dy":0.0025,"dx":0.0025,"nx":19,"ny":19,"refTime":"2026-05-04T03:00:00:Z","depth":"2","parameterNumber":2,"parameterNumberName":"U-component_of_CURRENTS"},"data":[0,0,0,0.3035,0.3041,0.3352,0.3354,0.3523,0.3523,0,0,0,0,0,0,0,0,0,0,0,0.2946,0.2948,0.3035,0.3041,0.3352,0.3354,0.3522,0.3523,0,0,0,0,0,0,0,0,0,0,0,0.2945,0.2948,0.2951,0.3042,0.3352,0.3354,0.3522,0.3351,0,0,0,0,0,0,0,0,0,0,0.308,0.3039,0.2947,0.2951,0.3044,0.3351,0.3354,0.3345,0.3361,0.3308,0,0.3368,0,0.3425,0.3527,0.3527,0,0,0,0.3067,0.3026,0.3084,0.2951,0.3047,0.3351,0.3219,0.3356,0.3374,0.3328,0.3371,0.3379,0.3428,0.3527,0.3527,0.3593,0.3593,0,0,0.305,0.3022,0.3073,0.3096,0.3137,0.3209,0.3228,0.337,0.34,0.3372,0.3384,0.343,0.3528,0.3528,0.3593,0.3593,0,0,0,0.2983,0.301,0.3072,0.3087,0.3149,0.3217,0.324,0.3396,0.3411,0.3386,0.3432,0.3528,0.3529,0.3592,0.3593,0.363,0,0,0,0.2974,0.2969,0.3064,0.3053,0.3148,0.3311,0.3262,0.3402,0.342,0.3432,0.3528,0.3529,0.3592,0.3593,0.3628,0.362,0,0,0,0.293,0.2965,0.2999,0.305,0.3169,0.3311,0.3338,0.341,0.3444,0.3527,0.3529,0.3592,0.3593,0.3627,0.3618,0.3753,0,0,0,0.2892,0.2993,0.2999,0.3157,0.3166,0.3322,0.3339,0.3471,0.3548,0.3528,0.3592,0.3593,0.3626,0.3617,0.375,0.3642,0.3649,0,0,0.2994,0.3005,0.3105,0.3118,0.3239,0.328,0.3404,0.3506,0.353,0.3532,0.3537,0.3629,0.3618,0.3752,0.3683,0.3688,0,0,0,0.3123,0.3132,0.3196,0.3274,0.3387,0.3419,0.3511,0.3537,0.3612,0.3575,0.3633,0.3624,0.3709,0.3637,0.3641,0.3596,0.3596,0.3596,0.3596,0.3078,0.3164,0.3247,0.3318,0.3401,0.3501,0.3571,0.3598,0.3627,0.3662,0.3659,0.3784,0.3704,0.3707,0.3676,0.3677,0.3677,0.3677,0.3677,0.309,0.3134,0.318,0.3277,0.333,0.3402,0.3534,0.3601,0.3736,0.3693,0.3777,0.3681,0.3713,0.368,0.3679,0.3679,0.3679,0.3678,0.3678,0.3004,0.3037,0.3088,0.3166,0.3218,0.3341,0.3487,0.3614,0.374,0.3829,0.3838,0.3835,0.3838,0.3919,0.392,0.392,0.3921,0.3921,0.3922,0.2924,0.2966,0.3018,0.307,0.3127,0.3269,0.3503,0.3652,0.3807,0.3859,0.386,0.3867,0.3859,0.3853,0.393,0.3929,0.3928,0.3927,0.3926,0.2919,0.2927,0.2996,0.3051,0.3193,0.3222,0.3485,0.3694,0.3876,0.3918,0.3908,0.3905,0.3899,0.3892,0.3887,0.397,0.397,0.397,0.397,0.2914,0.292,0.3067,0.316,0.3245,0.3252,0.3318,0.3378,0.3563,0.3601,0.3616,0.3482,0.349,0.3453,0.3457,0.344,0.3406,0.3405,0.3403,0.2952,0.2986,0.3123,0.3209,0.3274,0.3237,0.3069,0.2866,0.304,0.3373,0.3437,0.3948,0.3787,0.3785,0.3756,0.3751,0.3735,0,0]},{"header":{"parameterUnit":"m.s-1","parameterCategory":2,"la1":30.2992,"la2":30.254,"lo1":-89.0895,"lo2":-89.0443,"dy":0.0025,"dx":0.0025,"nx":19,"ny":19,"refTime":"2026-05-04T03:00:00:Z","depth":"2","parameterNumber":3,"parameterNumberName":"V-component_of_CURRENTS"},"data":[0,0,0,0.0175,0.0175,0.0184,0.0184,0.0141,0.014,0,0,0,0,0,0,0,0,0,0,0,0.0177,0.0177,0.0175,0.0176,0.0184,0.0184,0.0141,0.014,0,0,0,0,0,0,0,0,0,0,0,0.0176,0.0177,0.0177,0.0176,0.0184,0.0184,0.0141,0.0147,0,0,0,0,0,0,0,0,0,0,0.0146,0.0162,0.0177,0.0177,0.0176,0.0184,0.0184,0.0148,0.0147,0.0123,0,0.0131,0,0.0132,0.0136,0.0136,0,0,0,0.0173,0.0163,0.0159,0.0177,0.0176,0.0184,0.0179,0.0148,0.0146,0.0121,0.013,0.0129,0.0132,0.0136,0.0136,0.0128,0.0128,0,0,0.0173,0.018,0.016,0.0158,0.0185,0.0179,0.018,0.0148,0.0151,0.013,0.0128,0.0131,0.0136,0.0135,0.0127,0.0128,0,0,0,0.0173,0.018,0.0178,0.016,0.0164,0.0179,0.018,0.0153,0.0151,0.0128,0.013,0.0135,0.0135,0.0127,0.0128,0.0303,0,0,0,0.0173,0.018,0.0178,0.0183,0.0165,0.0167,0.0186,0.0154,0.015,0.0131,0.0135,0.0134,0.0127,0.0127,0.0298,0.0441,0,0,0,0.0175,0.0181,0.0183,0.0183,0.0187,0.0168,0.0165,0.0153,0.0151,0.0136,0.0134,0.0126,0.0127,0.0293,0.043,0.0518,0,0,0,0.018,0.0237,0.0183,0.0257,0.0187,0.0246,0.0165,0.0194,0.0193,0.0135,0.0127,0.0128,0.0291,0.0423,0.0511,0.0493,0.0525,0,0,0.0265,0.0247,0.0296,0.025,0.0333,0.0244,0.0328,0.0278,0.0189,0.0132,0.0132,0.0299,0.0429,0.0517,0.054,0.0571,0,0,0,0.0334,0.0368,0.0387,0.0417,0.0418,0.044,0.0374,0.0337,0.0294,0.019,0.0266,0.0343,0.0393,0.0365,0.0389,0.0131,0.0131,0.0131,0.0131,0.0435,0.0452,0.0539,0.0561,0.0588,0.0566,0.0586,0.051,0.0396,0.0391,0.0459,0.0619,0.0588,0.0606,0.039,0.0391,0.0391,0.0392,0.0392,0.0575,0.0633,0.0649,0.0747,0.0748,0.08,0.0774,0.0717,0.0732,0.0589,0.0626,0.0519,0.0644,0.0406,0.0403,0.0401,0.04,0.0399,0.0398,0.0636,0.0672,0.0734,0.0851,0.0955,0.0968,0.1119,0.1051,0.0927,0.0984,0.0894,0.0889,0.0772,0.0974,0.0975,0.0976,0.0977,0.0978,0.0978,0.0673,0.0737,0.0867,0.0983,0.1074,0.1246,0.1339,0.1371,0.127,0.1132,0.1129,0.0816,0.0797,0.0804,0.0994,0.0991,0.0989,0.0988,0.0987,0.0774,0.0814,0.0982,0.1093,0.1358,0.1566,0.1653,0.1686,0.165,0.1579,0.1183,0.1173,0.1125,0.11,0.1112,0.1372,0.1372,0.1372,0.1372,0.0843,0.0873,0.1127,0.1315,0.1562,0.1733,0.1966,0.1855,0.1581,0.1366,0.1366,0.1205,0.1189,0.1133,0.1108,0.1114,0.1376,0.1376,0.1376,0.0933,0.0984,0.1177,0.1375,0.1638,0.1926,0.2078,0.19,0.1487,0.1374,0.1345,0.1377,0.1129,0.1109,0.1003,0.0971,0.0972,0,0]}],[{"header":{"parameterUnit":"m.s-1","parameterCategory":2,"la1":30.2992,"la2":30.254,"lo1":-89.0895,"lo2":-89.0443,"dy":0.0025,"dx":0.0025,"nx":19,"ny":19,"refTime":"2026-05-04T03:00:00:Z","depth":"4","parameterNumber":2,"parameterNumberName":"U-component_of_CURRENTS"},"data":[0,0,0,0.1274,0.1277,0.1386,0.1386,0.1791,0.1796,0,0,0,0,0,0,0,0,0,0,0,0.1255,0.1257,0.1273,0.1277,0.1386,0.1386,0.179,0.1796,0,0,0,0,0,0,0,0,0,0,0,0.1254,0.1256,0.1258,0.1277,0.1386,0.1386,0.1789,0.1636,0,0,0,0,0,0,0,0,0,0,0.1495,0.1432,0.1256,0.1258,0.1278,0.1386,0.1386,0.1626,0.1646,0.1823,0,0.1868,0,0.1853,0.1831,0.1832,0,0,0,0.1258,0.1414,0.1463,0.1259,0.1279,0.1386,0.1331,0.1635,0.1658,0.1852,0.1873,0.1886,0.186,0.1834,0.1837,0.2214,0.2214,0,0,0.1252,0.126,0.1446,0.1478,0.1354,0.1328,0.1335,0.1646,0.1687,0.1875,0.1894,0.1866,0.1837,0.1841,0.2213,0.2214,0,0,0,0.1247,0.1256,0.1289,0.1464,0.147,0.1332,0.134,0.1672,0.169,0.1898,0.1871,0.184,0.1847,0.2213,0.2214,0.233,0,0,0,0.1243,0.1254,0.1288,0.129,0.1463,0.1533,0.136,0.1667,0.17,0.1869,0.1841,0.1852,0.2213,0.2213,0.2326,0.2302,0,0,0,0.1241,0.1253,0.1281,0.1291,0.1346,0.1526,0.1557,0.1671,0.1688,0.1833,0.1853,0.2213,0.2213,0.2323,0.2298,0.2389,0,0,0,0.122,0.1269,0.1283,0.1273,0.1345,0.1503,0.1553,0.1703,0.1831,0.1843,0.2213,0.2214,0.2322,0.2296,0.2386,0.2067,0,0,0,0.1254,0.1273,0.124,0.1254,0.133,0.1483,0.1661,0.1845,0.189,0.2128,0.2134,0.2327,0.2298,0.2388,0.21,0,0,0,0,0.1223,0.1295,0.1269,0.1335,0.1414,0.1595,0.1839,0.1936,0.2109,0.1969,0.2305,0.228,0.2336,0.2138,0.2216,0.2216,0.2216,0.2216,0.2216,0.1396,0.1366,0.139,0.145,0.1576,0.1799,0.1916,0.2126,0.223,0.2294,0.2364,0.2478,0.2273,0.2386,0.2387,0.2387,0.2387,0.2388,0.2388,0.1452,0.1419,0.1526,0.1559,0.1728,0.1983,0.2194,0.2267,0.2459,0.2447,0.2501,0.2255,0.2399,0.2397,0.2395,0.2394,0.2393,0.2392,0.2392,0.1457,0.1452,0.1505,0.1633,0.1868,0.2058,0.2203,0.2381,0.2511,0.2569,0.2402,0.2541,0.2547,0.2653,0.2654,0.2654,0.2654,0.2655,0.2655,0.1374,0.1449,0.1513,0.1695,0.1795,0.1976,0.2244,0.2325,0.2515,0.2431,0.2617,0.2567,0.2558,0.256,0.266,0.2659,0.2658,0.2658,0.2657,0.1278,0.1363,0.1401,0.1485,0.168,0.1793,0.2084,0.2215,0.2314,0.2315,0.2371,0.2384,0.2304,0.2301,0.2291,0.2315,0.2312,0.2308,0,0.1207,0.1255,0.1244,0.1277,0.1376,0.1623,0.1695,0.1862,0.2051,0.1985,0.2277,0.2332,0.2342,0.224,0.2233,0.2212,0,0,0,0.1121,0.1125,0.1037,0.1091,0.1188,0.1416,0.1689,0.169,0.2043,0.2043,0.2214,0.2239,0.2442,0.2675,0.2582,0.2572,0.257,0,0]},{"header":{"parameterUnit":"m.s-1","parameterCategory":2,"la1":30.2992,"la2":30.254,"lo1":-89.0895,"lo2":-89.0443,"dy":0.0025,"dx":0.0025,"nx":19,"ny":19,"refTime":"2026-05-04T03:00:00:Z","depth":"4","parameterNumber":3,"parameterNumberName":"V-component_of_CURRENTS"},"data":[0,0,0,0.0278,0.028,0.0336,0.0336,0.0217,0.0216,0,0,0,0,0,0,0,0,0,0,0,0.0262,0.0263,0.0278,0.028,0.0336,0.0336,0.0218,0.0216,0,0,0,0,0,0,0,0,0,0,0,0.0261,0.0263,0.0264,0.0281,0.0336,0.0336,0.0218,0.0217,0,0,0,0,0,0,0,0,0,0,0.0185,0.0199,0.0262,0.0264,0.0281,0.0336,0.0336,0.0219,0.0217,0.0146,0,0.0182,0,0.0201,0.0206,0.0206,0,0,0,0.0257,0.0201,0.0226,0.0264,0.0282,0.0336,0.0304,0.0219,0.0217,0.0142,0.018,0.0177,0.0199,0.0205,0.0204,0.0136,0.0136,0,0,0.0253,0.0249,0.0229,0.0226,0.0328,0.0303,0.0306,0.022,0.0219,0.018,0.0175,0.0197,0.0204,0.0203,0.0135,0.0136,0,0,0,0.0261,0.0247,0.0278,0.023,0.0258,0.0305,0.0309,0.0223,0.0238,0.0174,0.0196,0.0203,0.0201,0.0135,0.0136,0.0214,0,0,0,0.0258,0.0253,0.0277,0.0271,0.0262,0.0266,0.0313,0.0244,0.0236,0.0196,0.0203,0.02,0.0135,0.0135,0.0211,0.0223,0,0,0,0.0254,0.0251,0.0271,0.0271,0.0308,0.0269,0.0278,0.0244,0.0248,0.0205,0.02,0.0134,0.0135,0.0208,0.0219,0.019,0,0,0,0.0226,0.0288,0.0272,0.034,0.0308,0.0363,0.028,0.0292,0.0268,0.0202,0.0135,0.0135,0.0207,0.0216,0.0188,0.0235,0,0,0,0.0291,0.0295,0.0337,0.0325,0.0398,0.0352,0.0384,0.0312,0.0248,0.0143,0.0144,0.0212,0.0218,0.0189,0.0287,0,0,0,0,0.0349,0.0374,0.0397,0.0432,0.0457,0.0441,0.0394,0.0346,0.0272,0.0243,0.0208,0.0209,0.0188,0.0211,0.014,0.014,0.014,0.0139,0.0139,0.0377,0.0407,0.0463,0.0493,0.0516,0.0492,0.0456,0.0372,0.0325,0.0303,0.0271,0.0298,0.033,0.0279,0.028,0.028,0.028,0.0281,0.0281,0.0438,0.0455,0.0485,0.0554,0.0543,0.0557,0.048,0.0439,0.0346,0.0324,0.03,0.0293,0.0288,0.0287,0.0286,0.0285,0.0284,0.0284,0.0283,0.0422,0.0433,0.0491,0.0555,0.0588,0.0588,0.0561,0.0498,0.0402,0.0381,0.0369,0.0322,0.0313,0.0375,0.0375,0.0375,0.0375,0.0375,0.0375,0.0365,0.0424,0.0474,0.0552,0.0593,0.0628,0.0609,0.056,0.0484,0.0437,0.0399,0.0328,0.0325,0.0316,0.0375,0.0375,0.0375,0.0375,0.0375,0.0317,0.036,0.0448,0.0502,0.0611,0.0644,0.0646,0.0603,0.0541,0.0475,0.0439,0.0436,0.0392,0.0386,0.0377,0.0456,0.0457,0.0458,0,0.0261,0.0292,0.0437,0.0542,0.0617,0.0664,0.0655,0.063,0.0527,0.0526,0.0487,0.0448,0.0445,0.0396,0.0392,0.0383,0,0,0,0.0207,0.029,0.0389,0.0554,0.0653,0.0665,0.0667,0.0653,0.0551,0.0538,0.0477,0.0472,0.0454,0.0373,0.0296,0.0292,0.0271,0,0]}]]